Mastic, NY

4:47 PM EDT on July 25, 2016 (GMT -0400)
Brookhaven

Weather History for KHWV - April, 2013

Change the Weather History Date:

Tuesday, April 23, 2013

  Actual Average (KISP) Record (KISP)
Temperature  
Mean Temperature 44 °F 52 °F  
Max Temperature 48 °F 60 °F 76 °F (1990)
Min Temperature 41 °F 43 °F 31 °F (1989)
Degree Days  
Heating Degree Days 20 14  
Month to date heating degree days 392  
Since 1 July heating degree days 5084  
Cooling Degree Days 0 0  
Month to date cooling degree days 0  
Year to date cooling degree days 0  
Moisture  
Dew Point 38 °F    
Average Humidity 78    
Maximum Humidity 89    
Minimum Humidity 67    
Precipitation  
Precipitation 0.00 in 0.14 in 4.63 in (2006)
Month to date precipitation 3.38  
Year to date precipitation 14.72  
Snow  
Snow 0.00 in 0.00 in - ()
Month to date snowfall 0.6  
Since 1 July snowfall 24.8  
Snow Depth -    
Sea Level Pressure  
Sea Level Pressure 30.28 in    
Wind  
Wind Speed 7 mph (North)    
Max Wind Speed 17 mph    
Max Gust Speed 25 mph    
Visibility 9 miles    
Events Rain    
T = Trace of Precipitation, MM = Missing Value Source: NWS Daily Summary

Daily Weather History Graph

Daily Weather History Graph

Search for Another Location

Airport or City:

Trip Planner

Search our weather history database for the weather conditions in past years. The results will help you decide how hot, cold, wet, or windy it might be!

Date:

Astronomy

Apr. 23, 2013 Rise Set
Actual Time 6:00 AM EDT 7:39 PM EDT
Civil Twilight 5:31 AM EDT 8:08 PM EDT
Nautical Twilight 4:56 AM EDT 8:44 PM EDT
Astronomical Twilight 4:18 AM EDT 9:21 PM EDT
Moon 5:30 PM EDT (4/23) 4:27 AM EDT (4/23)
Length of Visible Light 14h 37m
Length of Day
13h 39m
Waxing Gibbous, 94% of the Moon is Illuminated
Apr 23
Waxing Gibbous
Apr 25
Full
May 2
Last Quarter
May 9
New
May 18
First Quarter

Hourly Weather History & Observations

Time (EDT) Temp. Windchill Dew Point Humidity Pressure Visibility Wind Dir Wind Speed Gust Speed Precip Events Conditions
12:56 AM 41.0 °F - 30.9 °F 67% 30.50 in 10.0 mi Calm Calm - N/A   Partly Cloudy
1:56 AM 42.1 °F 40.2 °F 32.0 °F 67% 30.47 in 10.0 mi Variable 3.5 mph - N/A   Overcast
2:21 AM 42.8 °F 40.1 °F 33.8 °F 70% 30.45 in 10.0 mi Variable 4.6 mph - N/A   Overcast
2:56 AM 42.1 °F 37.7 °F 33.1 °F 70% 30.44 in 10.0 mi Variable 6.9 mph - N/A   Overcast
3:56 AM 42.1 °F 37.7 °F 33.1 °F 70% 30.42 in 10.0 mi Variable 6.9 mph - N/A   Overcast
4:56 AM 41.0 °F 36.4 °F 34.0 °F 76% 30.41 in 10.0 mi Variable 6.9 mph - N/A   Overcast
5:56 AM 41.0 °F 36.4 °F 35.1 °F 79% 30.39 in 10.0 mi Variable 6.9 mph - N/A   Overcast
6:09 AM 41.0 °F 35.2 °F 35.6 °F 81% 30.39 in 10.0 mi NNE 9.2 mph - N/A   Overcast
6:56 AM 41.0 °F 36.4 °F 36.0 °F 82% 30.38 in 7.0 mi Variable 6.9 mph 16.1 mph N/A   Overcast
7:37 AM 41.0 °F 35.8 °F 37.4 °F 87% 30.38 in 3.0 mi NNE 8.1 mph - 0.00 in   Overcast
7:56 AM 41.0 °F 36.4 °F 37.0 °F 86% 30.38 in 5.0 mi North 6.9 mph - 0.00 in Rain Light Rain
8:56 AM 41.0 °F 35.8 °F 37.9 °F 89% 30.37 in 5.0 mi NNE 8.1 mph - 0.00 in   Overcast
9:56 AM 42.1 °F 37.1 °F 39.0 °F 89% 30.35 in 6.0 mi NNE 8.1 mph 16.1 mph 0.00 in   Overcast
10:56 AM 43.0 °F 40.3 °F 39.9 °F 89% 30.34 in 10.0 mi Variable 4.6 mph - 0.00 in   Overcast
11:56 AM 44.1 °F 38.6 °F 39.9 °F 85% 30.32 in 10.0 mi NNE 10.4 mph 20.7 mph N/A   Overcast
12:56 PM 46.0 °F 41.9 °F 41.0 °F 83% 30.28 in 10.0 mi NE 8.1 mph 21.9 mph N/A   Overcast
1:30 PM 46.4 °F 41.5 °F 41.0 °F 81% 30.26 in 10.0 mi NNE 10.4 mph 16.1 mph N/A   Overcast
1:56 PM 46.0 °F 41.0 °F 39.9 °F 79% 30.25 in 10.0 mi NNE 10.4 mph 19.6 mph N/A   Overcast
2:56 PM 46.9 °F - 41.0 °F 80% 30.22 in 10.0 mi NNE 8.1 mph - N/A   Overcast
3:13 PM 48.2 °F - 41.0 °F 76% 30.21 in 10.0 mi North 11.5 mph 17.3 mph N/A   Overcast
3:56 PM 48.0 °F - 41.0 °F 77% 30.20 in 10.0 mi North 11.5 mph 21.9 mph N/A   Overcast
4:56 PM 48.0 °F - 39.9 °F 74% 30.19 in 10.0 mi North 12.7 mph 23.0 mph N/A   Overcast
5:56 PM 48.0 °F - 39.9 °F 74% 30.18 in 10.0 mi North 12.7 mph - N/A   Overcast
6:56 PM 46.9 °F - 39.0 °F 74% 30.14 in 10.0 mi North 11.5 mph 20.7 mph N/A   Overcast
7:21 PM 46.4 °F 40.1 °F 39.2 °F 76% 30.14 in 10.0 mi North 15.0 mph 20.7 mph N/A   Overcast
7:56 PM 46.0 °F 39.0 °F 39.0 °F 76% 30.13 in 10.0 mi North 17.3 mph 24.2 mph N/A   Mostly Cloudy
8:56 PM 45.0 °F 37.9 °F 37.9 °F 76% 30.14 in 10.0 mi North 16.1 mph - N/A   Overcast
9:56 PM 44.1 °F 37.1 °F 37.9 °F 79% 30.10 in 10.0 mi North 15.0 mph 25.3 mph N/A   Partly Cloudy
10:56 PM 44.1 °F 38.1 °F 37.9 °F 79% 30.07 in 10.0 mi North 11.5 mph 20.7 mph N/A   Scattered Clouds
11:13 PM 44.6 °F 38.1 °F 37.4 °F 76% 30.07 in 10.0 mi North 13.8 mph 21.9 mph N/A   Mostly Cloudy
11:56 PM 45.0 °F 38.5 °F 39.0 °F 80% 30.07 in 10.0 mi North 13.8 mph - N/A   Overcast